Regional Weather Roundup
Issued by NWS

Home | Current Version | Previous Version | Graphics & Text | Print | Product List | Glossary On
Versions: 1 2 3 4 5 6 7 8 9 10 11 12 13 14 15 16 17 18 19 20 21 22 23 24 25 26 27 28
000
ASUS45 KSLC 200810
RWRUT

UTAH REGIONAL WEATHER ROUNDUP
NATIONAL WEATHER SERVICE SALT LAKE CITY UT
100 AM MST FRI JAN 20 2017

UTZ001>011-023>025-200900-

NORTHERN UTAH

CITY           SKY/WX    TMP DP  RH WIND       PRES   REMARKS
BRIGHAM CITY     N/A     31  29  93 NE3       29.67F
HILL AFB       FOG       29  29  98 CALM      29.65F VSB 1/2
LOGAN          CLOUDY    27  27 100 SE3       29.65F FOG
OGDEN          FOG       28  28 100 CALM      29.65F VSB 3/4
SALT LAKE CITY FOG       29  29 100 W6        29.67F VSB 1/4 WCI  23
TOOELE VALLEY  FOG       30  30 100 SE3       29.67F VSB 1/4
WENDOVER       CLOUDY    25  23  93 SE3       29.69F VSB 1/4
HEBER CITY     CLOUDY    30  28  93 CALM      29.61S FOG
WEST JORDAN    CLOUDY    31  31 100 CALM      29.66F VSB 1/2

$$

UTZ011>015-024>027-200900-

CENTRAL/NORTHEAST UTAH

CITY           SKY/WX    TMP DP  RH WIND       PRES   REMARKS
PROVO AIRPORT  FOG       32  31  96 NW5       29.67S VSB 1/4 WCI  27
MOAB/CANYONLAN LGT SNOW  31  31 100 N7        29.62F FOG     WCI  24
DELTA          CLOUDY    32  32 100 CALM      29.66F
PRICE          CLOUDY    22  22 100 N6        29.61F WCI  14
RICHFIELD      CLOUDY    32  32 100 CALM      29.66F
ROOSEVELT      CLOUDY    18  14  86 CALM      29.69F FOG
VERNAL         LGT SNOW  17  14  88 CALM      29.67F FOG

$$

UTZ013>016-019>022-027-200900-

SOUTHERN UTAH

CITY           SKY/WX    TMP DP  RH WIND       PRES   REMARKS
BRYCE CANYON   LGT SNOW  23  19  85 S6        29.64S FOG     WCI  16
CEDAR CITY     CLOUDY    30  27  88 S3        29.69F
MILFORD        CLOUDY    32  31  96 W8        29.67S WCI  25
ST GEORGE      CLOUDY    39  34  81 S3        29.77F
HANKSVILLE     CLOUDY    32  32 100 MISG      29.67F
KANAB          CLOUDY    34  32  93 S8        29.76S WCI  27
BLANDING       CLOUDY    31  31 100 SW15      29.72F VSB 3/4 WCI  20

$$

REGIONAL REPORTS     COLORADO/ARIZONA

CITY           SKY/WX    TMP DP  RH WIND       PRES   REMARKS
CRAIG, CO      LGT SNOW  28  25  88 CALM      29.60F FOG
GRAND JUNCTION CLOUDY    31  31 100 NW3       29.62F FOG
RIFLE, CO      LGT SNOW  30  30 100 CALM      29.62F FOG
MONTROSE, CO   CLOUDY    31  30  96 CALM      29.64F
CORTEZ, CO     LGT SNOW  31  31 100 S17       29.67F FOG     WCI  19
COLORADO CITY  CLOUDY    34  32  93 CALM      29.76F
PAGE, AZ       CLOUDY    39  32  76 CALM      29.67F
GRAND CANYON   FOG       28  28 100 SW12      29.74F VSB 1/4 WCI  18
KINGMAN, AZ    PTCLDY    42  37  82 SW8       29.77F
FLAGSTAFF, AZ  SNOW      28  27  96 SW12      29.74F VSB 1/2 WCI  18

$$

REGIONAL REPORTS    NEVADA/IDAHO/WYOMING

CITY           SKY/WX    TMP DP  RH WIND       PRES   REMARKS
LAS VEGAS, NV  MOCLDY    50  31  48 VRB3      29.70F
ELY, NY        CLOUDY    18  17  96 S8        29.66F WCI   8
ELKO, NV       PTCLDY    20  17  88 E5        29.63F WCI  13
POCATELLO, ID  LGT SNOW  31  28  89 S5        29.64F FOG     WCI  26
BURLEY, ID     CLOUDY    34  29  82 SW3       29.62F
FORT BRIDGER,  CLOUDY    25  25 100 W10       29.61F WCI  15
EVANSTON, WY   FOG       21  18  88 W10       29.60F VSB 1/4 WCI  10
ROCK SPRINGS,  CLOUDY    22  20  92 W12       29.58F WCI  10

$$




USA.gov is the U.S. government's official web portal to all federal, state and local government web resources and services.